Weather History for Williston, ND

Change the Weather History Date:

Monday, April 7, 2014

  Actual Average Record
Temperature  
Mean Temperature 42 °F 40 °F  
Max Temperature 58 °F 53 °F 82 °F (2005)
Min Temperature 26 °F 27 °F 2 °F (1936)
Degree Days  
Heating Degree Days 23 25  
Month to date heating degree days 216 186  
Since 1 July heating degree days 8368 8061  
Cooling Degree Days 0 0  
Month to date cooling degree days 0 0  
Year to date cooling degree days 0 0  
Moisture  
Dew Point 27 °F    
Average Humidity 57    
Maximum Humidity 89    
Minimum Humidity 24    
Precipitation  
Precipitation 0.01 in 0.03 in 0.70 in (1948)
Month to date precipitation 0.18 0.19  
Year to date precipitation 0.94 1.88  
Sea Level Pressure  
Sea Level Pressure 30.03 in    
Wind  
Wind Speed 13 mph (NW)    
Max Wind Speed 30 mph    
Max Gust Speed 39 mph    
Visibility 10 miles    
Events Rain    
T = Trace of Precipitation, MM = Missing Value Source: NWS Daily Summary

Daily Weather History Graph

Daily Weather History Graph

Search for Another Location

Airport:

Trip Planner

Search our weather history database for the weather conditions in past years. The results will help you decide how hot, cold, wet, or windy it might be!

Date:

Astronomy

Apr. 07, 2014 Rise Set
Actual Time 7:20 AM CDT 8:33 PM CDT
Civil Twilight 6:48 AM CDT 9:05 PM CDT
Nautical Twilight 6:09 AM CDT 9:44 PM CDT
Astronomical Twilight 5:28 AM CDT 10:26 PM CDT
Moon 1:06 PM CDT (4/7) 3:24 AM CDT (4/7)
Length of Visible Light 14h 17m
Length of Day
13h 13m
First Quarter, 53% of the Moon is Illuminated
Apr 7
First Quarter
Apr 15
Full
Apr 22
Last Quarter
Apr 29
New
May 6
First Quarter

Hourly Weather History & Observations

Time (CDT) Temp. Windchill Dew Point Humidity Pressure Visibility Wind Dir Wind Speed Gust Speed Precip Events Conditions
12:52 AM 39.9 °F 35.8 °F 32.0 °F 73% 29.91 in 10.0 mi SW 5.8 mph - N/A   Overcast
1:52 AM 44.1 °F 37.1 °F 30.9 °F 60% 29.92 in 10.0 mi WNW 15.0 mph - N/A   Overcast
2:52 AM 42.1 °F 36.1 °F 30.9 °F 65% 29.94 in 10.0 mi WNW 10.4 mph - N/A   Overcast
3:52 AM 44.1 °F 39.0 °F 33.1 °F 65% 29.94 in 10.0 mi West 9.2 mph - 0.01 in Rain Light Rain
4:52 AM 41.0 °F 34.3 °F 33.1 °F 73% 29.97 in 10.0 mi NW 11.5 mph - 0.00 in   Overcast
5:52 AM 37.0 °F 31.0 °F 33.1 °F 86% 29.99 in 10.0 mi NW 8.1 mph - 0.00 in   Overcast
6:52 AM 36.0 °F 29.6 °F 32.0 °F 86% 30.01 in 10.0 mi WNW 8.1 mph - N/A   Mostly Cloudy
7:52 AM 35.1 °F 26.4 °F 30.9 °F 85% 30.05 in 10.0 mi West 12.7 mph - N/A   Scattered Clouds
8:52 AM 37.9 °F 30.0 °F 32.0 °F 79% 30.06 in 10.0 mi WNW 12.7 mph - N/A   Clear
9:52 AM 44.1 °F 37.4 °F 32.0 °F 63% 30.06 in 10.0 mi WNW 13.8 mph - N/A   Partly Cloudy
10:52 AM 48.0 °F - 28.9 °F 48% 30.06 in 10.0 mi WNW 20.7 mph 28.8 mph N/A   Clear
11:52 AM 52.0 °F - 27.0 °F 38% 30.06 in 10.0 mi NW 24.2 mph 32.2 mph N/A   Clear
12:52 PM 55.0 °F - 24.1 °F 30% 30.05 in 10.0 mi NW 20.7 mph 35.7 mph N/A   Clear
1:52 PM 55.9 °F - 19.9 °F 25% 30.04 in 10.0 mi NW 27.6 mph 34.5 mph N/A   Clear
2:52 PM 55.9 °F - 23.0 °F 28% 30.04 in 10.0 mi NNW 24.2 mph 31.1 mph N/A   Mostly Cloudy
3:52 PM 55.0 °F - 25.0 °F 31% 30.04 in 10.0 mi NNW 19.6 mph 34.5 mph N/A   Overcast
4:52 PM 55.0 °F - 23.0 °F 29% 30.05 in 10.0 mi NNW 19.6 mph 29.9 mph N/A   Mostly Cloudy
5:52 PM 55.0 °F - 23.0 °F 29% 30.06 in 10.0 mi North 15.0 mph 33.4 mph N/A   Mostly Cloudy
6:52 PM 53.1 °F - 23.0 °F 31% 30.06 in 10.0 mi North 15.0 mph 23.0 mph N/A   Clear
7:52 PM 50.0 °F - 25.0 °F 38% 30.07 in 10.0 mi NNE 8.1 mph - N/A   Clear
8:52 PM 37.0 °F 34.5 °F 24.1 °F 59% 30.10 in 10.0 mi North 3.5 mph - N/A   Clear
9:52 PM 37.9 °F - 25.0 °F 60% 30.11 in 10.0 mi Calm Calm - N/A   Partly Cloudy
10:52 PM 32.0 °F - 24.1 °F 73% 30.11 in 10.0 mi Calm Calm - N/A   Overcast
11:52 PM 28.9 °F - 23.0 °F 78% 30.10 in 10.0 mi Calm Calm - N/A   Clear